STARLINK-36758, 67926

Orbit data source: Space-Track

STARLINK-36758, 67926 is a payload satellite owned by SpaceX/Seattle (US) in LEO that was launched on Sun, 22 Feb 2026 UTC via an FALCON 9 launch vehicle from the Air Force Eastern Test Range (AFETR). Payload-class satellites include a variety of spacecraft equipped with specific instruments for various scientific and technological missions. These include communications satellites like Starlink; space stations such as the ISS; scientific satellites like the Hubble; Earth observation satellites from companies like Planet Labs, Umbra, and HawkEye 360; GPS; miniature CubeSats for education and research; and military/defense satellites.

Loading next visibility...
Identifier
67926, 2026-036Y
Orbit
LEO
Country
Flag of USUS
Related business
Manufacturer
SpaceX/Seattle
Mission
Operational spacecraft
Bus & Motor
STARLINK V2MO, Unknown motor
Mass
575 kg wet, ~530 kg dry
Launch date (UTC)
2026-02-22 (2 months ago)
Launch vehicle
FALCON 9
Launch site
Air Force Eastern Test Range (AFETR)
Object type
Payload
Rocket body
Debris
Shape & HBR
Unknown shape, 17.7 m
Radar Cross Section
RCS unknown

Expand to show TLE details & history
Last TLE update: 8 hours ago

TLE from 8 hours ago
0 STARLINK-36758
1 67926U 26036Y   26104.20437380  .00008111  00000-0  30386-3 0  9991
2 67926  42.9989  44.6850 0001347 268.5104  91.5593 15.27588511  9151
Epoch: 2026-04-14T04:54Z
TLE epoch observation values (Epoch: 2026-04-14T04:54:17.896Z)
Latitude
-0.00003°
Longitude
128.72642°
Altitude
482.824 km
Speed
7.626 km/s
True Right ascension
02h 58m 44s
True Declination
0° 00' 00"
Sunlit
Object was in daylight at epoch
Visualization orbit readout
Latitude
Unknown
Longitude
Unknown
Altitude
Unknown
Speed
Unknown
Apparent Right ascension
Unknown
Apparent Declination
Unknown
Sunlit
N/A
Visualization observer readout
Local Sidereal Time
19:21:37
Azimuth
Unknown
Elevation
Unknown
Doppler factor
Unknown
Orbital elements
Apogee altitude
485.893 km
Perigee altitude
484.045 km
Semi-major axis
6,863.106 km
Eccentricity
0.00013
Inclination
42.9989°
RAAN
44.685°
Arg. of periapsis
268.5104°
True anomaly
91.57473°
Mean anomaly
91.5593°
Eccentric anomaly
91.56701°
Mean motion
3.81735 °/min
Orbital period
94.31 mins
BSTAR
0.00030386
Loading maneuver chart data...
Computing Atmospheric mass density...
Loading historical data...
Loading historical data...
Loading historical data...
Loading historical data...
Loading historical data...
Loading historical data...
Loading historical data...

Documentation

Showing up to 5 results
|